Appleton, MN

11:39 PM CST on December 14, 2017 (GMT -0600)
Appleton Municipal

Weather History for KAQP - October, 2013

Change the Weather History Date:

Friday, October 11, 2013

  Actual Average Record
Temperature  
Mean Temperature 61 °F -  
Max Temperature 69 °F 58 °F 95 °F (2015)
Min Temperature 53 °F 35 °F 26 °F (2012)
Degree Days  
Heating Degree Days 4    
Growing Degree Days 11 (Base 50)    
Moisture  
Dew Point 51 °F    
Average Humidity 67    
Maximum Humidity 88    
Minimum Humidity 43    
Precipitation  
Precipitation 0.08 in - - ()
Sea Level Pressure  
Sea Level Pressure 29.60 in    
Wind  
Wind Speed 15 mph (SSE)    
Max Wind Speed 28 mph    
Max Gust Speed 36 mph    
Visibility 10 miles    
Events Rain , Thunderstorm    
Averages and records for this station are not official NWS values.
T = Trace of Precipitation, MM = Missing Value Source: NWS Daily Summary

Daily Weather History Graph

Daily Weather History Graph

Search for Another Location

Airport or City:

Trip Planner

Search our weather history database for the weather conditions in past years. The results will help you decide how hot, cold, wet, or windy it might be!

Date:

Astronomy

Oct. 11, 2013 Rise Set
Actual Time 7:35 AM CDT 6:45 PM CDT
Civil Twilight 7:05 AM CDT 7:14 PM CDT
Nautical Twilight 6:31 AM CDT 7:48 PM CDT
Astronomical Twilight 5:57 AM CDT 8:23 PM CDT
Moon 2:26 PM CDT (10/11) No Moon Set
Length of Visible Light 12h 09m
Length of Day
11h 10m
Waxing Crescent, 47% of the Moon is Illuminated
Oct 11
Waxing Crescent
Oct 11
First Quarter
Oct 18
Full
Oct 26
Last Quarter
Nov 3
New

Hourly Weather History & Observations

Time (CDT) Temp. Dew Point Humidity Pressure Visibility Wind Dir Wind Speed Gust Speed Precip Events Conditions
12:13 AM 66.2 °F 48.2 °F 52% 29.73 in 10.0 mi SE 13.8 mph 20.7 mph N/A   Clear
12:33 AM 66.2 °F 48.2 °F 52% 29.72 in 10.0 mi SE 12.7 mph 18.4 mph N/A   Clear
12:53 AM 66.2 °F 48.2 °F 52% 29.73 in 10.0 mi SE 12.7 mph - N/A   Clear
1:14 AM 64.4 °F 48.2 °F 56% 29.73 in 10.0 mi SE 11.5 mph 17.3 mph N/A   Clear
1:34 AM 64.4 °F 48.2 °F 56% 29.73 in 10.0 mi SE 11.5 mph 17.3 mph N/A   Clear
1:53 AM 64.4 °F 48.2 °F 56% 29.73 in 10.0 mi SE 10.4 mph - N/A   Clear
2:13 AM 62.6 °F 48.2 °F 59% 29.73 in 10.0 mi SE 10.4 mph - N/A   Clear
2:33 AM 62.6 °F 48.2 °F 59% 29.73 in 10.0 mi ESE 10.4 mph - N/A   Clear
2:53 AM 60.8 °F 48.2 °F 63% 29.73 in 10.0 mi ESE 9.2 mph - N/A   Clear
3:13 AM 60.8 °F 48.2 °F 63% 29.74 in 10.0 mi SE 9.2 mph - N/A   Clear
3:33 AM 60.8 °F 48.2 °F 63% 29.74 in 10.0 mi SE 10.4 mph - N/A   Clear
3:53 AM 60.8 °F 48.2 °F 63% 29.72 in 10.0 mi ESE 10.4 mph - N/A   Clear
4:13 AM 60.8 °F 48.2 °F 63% 29.72 in 10.0 mi SE 10.4 mph - N/A   Clear
4:33 AM 60.8 °F 48.2 °F 63% 29.71 in 10.0 mi ESE 12.7 mph - N/A   Clear
4:53 AM 60.8 °F 50.0 °F 68% 29.71 in 10.0 mi ESE 13.8 mph 18.4 mph N/A   Clear
5:13 AM 60.8 °F 50.0 °F 68% 29.70 in 10.0 mi ESE 11.5 mph - N/A   Clear
5:33 AM 60.8 °F 50.0 °F 68% 29.69 in 10.0 mi ESE 12.7 mph - N/A   Clear
5:53 AM 60.8 °F 50.0 °F 68% 29.69 in 10.0 mi ESE 13.8 mph 19.6 mph N/A   Clear
6:14 AM 60.8 °F 50.0 °F 68% 29.68 in 10.0 mi SE 15.0 mph - N/A   Clear
6:33 AM 60.8 °F 51.8 °F 72% 29.68 in 10.0 mi SE 13.8 mph - N/A   Clear
6:53 AM 60.8 °F 51.8 °F 72% 29.67 in 10.0 mi SE 15.0 mph 21.9 mph N/A   Clear
7:13 AM 60.8 °F 51.8 °F 72% 29.66 in 10.0 mi SE 13.8 mph 19.6 mph N/A   Clear
7:34 AM 60.8 °F 51.8 °F 72% 29.65 in 10.0 mi SE 13.8 mph - N/A   Clear
7:53 AM 60.8 °F 51.8 °F 72% 29.65 in 10.0 mi SE 16.1 mph - N/A   Clear
8:13 AM 60.8 °F 51.8 °F 72% 29.65 in 10.0 mi SE 16.1 mph 23.0 mph N/A   Clear
8:33 AM 62.6 °F 51.8 °F 68% 29.64 in 10.0 mi SE 16.1 mph 25.3 mph N/A   Clear
8:53 AM 62.6 °F 51.8 °F 68% 29.63 in 10.0 mi SE 12.7 mph 21.9 mph N/A   Clear
9:13 AM 62.6 °F 51.8 °F 68% 29.63 in 10.0 mi SE 15.0 mph 23.0 mph N/A   Clear
9:33 AM 62.6 °F 53.6 °F 72% 29.62 in 10.0 mi SE 18.4 mph 25.3 mph N/A   Scattered Clouds
9:53 AM 64.4 °F 53.6 °F 68% 29.59 in 10.0 mi ESE 19.6 mph 23.0 mph N/A   Scattered Clouds
10:13 AM 64.4 °F 53.6 °F 68% 29.59 in 10.0 mi SE 18.4 mph 24.2 mph N/A   Clear
10:34 AM 62.6 °F 53.6 °F 72% 29.59 in 10.0 mi SE 19.6 mph 28.8 mph N/A Rain Light Rain
10:53 AM 60.8 °F 55.4 °F 82% 29.61 in 4.0 mi SSE 17.3 mph 25.3 mph 0.04 in Rain , Thunderstorm Thunderstorms and Rain
11:13 AM 60.8 °F 55.4 °F 82% 29.60 in 10.0 mi SE 15.0 mph 20.7 mph 0.01 in Rain Light Rain
11:33 AM 60.8 °F 55.4 °F 82% 29.59 in 10.0 mi SE 12.7 mph 23.0 mph 0.02 in Rain , Thunderstorm Light Thunderstorms and Rain
11:53 AM 60.8 °F 55.4 °F 82% 29.57 in 5.0 mi SE 23.0 mph - 0.04 in Rain Heavy Rain
12:13 PM 60.8 °F 57.2 °F 88% 29.55 in 10.0 mi SE 15.0 mph 26.5 mph N/A Thunderstorm Scattered Clouds
12:33 PM 62.6 °F 57.2 °F 82% 29.55 in 10.0 mi SE 19.6 mph 25.3 mph N/A   Clear
12:53 PM 64.4 °F 57.2 °F 77% 29.53 in 10.0 mi SE 19.6 mph 26.5 mph N/A Thunderstorm Clear
1:13 PM 64.4 °F 57.2 °F 77% 29.53 in 10.0 mi SE 19.6 mph 27.6 mph N/A   Mostly Cloudy
1:33 PM 62.6 °F 57.2 °F 82% 29.52 in 10.0 mi SE 21.9 mph 32.2 mph N/A Thunderstorm Overcast
1:53 PM 62.6 °F 57.2 °F 82% 29.50 in 10.0 mi SE 17.3 mph 31.1 mph N/A   Overcast
2:14 PM 64.4 °F 57.2 °F 77% 29.49 in 10.0 mi SE 17.3 mph 34.5 mph N/A   Overcast
2:33 PM 64.4 °F 57.2 °F 77% 29.49 in 10.0 mi SE 23.0 mph 27.6 mph N/A   Overcast
2:54 PM 66.2 °F 57.2 °F 73% 29.48 in 10.0 mi SSE 21.9 mph 34.5 mph N/A   Overcast
3:14 PM 68.0 °F 57.2 °F 68% 29.47 in 10.0 mi SSE 20.7 mph 31.1 mph N/A   Mostly Cloudy
3:33 PM 69.8 °F 57.2 °F 64% 29.47 in 10.0 mi SSE 18.4 mph 32.2 mph N/A   Scattered Clouds
3:54 PM 69.8 °F 57.2 °F 64% 29.46 in 10.0 mi SSE 24.2 mph 34.5 mph N/A   Clear
4:13 PM 69.8 °F 57.2 °F 64% 29.45 in 10.0 mi SE 21.9 mph 32.2 mph N/A   Scattered Clouds
4:33 PM 69.8 °F 57.2 °F 64% 29.44 in 10.0 mi SSE 18.4 mph 33.4 mph N/A   Mostly Cloudy
4:53 PM 69.8 °F 57.2 °F 64% 29.44 in 10.0 mi SSE 20.7 mph 27.6 mph N/A   Mostly Cloudy
5:13 PM 68.0 °F 57.2 °F 68% 29.45 in 10.0 mi SSE 21.9 mph 29.9 mph N/A Rain Light Rain
5:33 PM 69.8 °F 57.2 °F 64% 29.43 in 10.0 mi SSE 17.3 mph 28.8 mph N/A Rain Light Rain
5:53 PM 66.2 °F 59.0 °F 78% 29.47 in 10.0 mi SW 16.1 mph 27.6 mph N/A Rain Light Rain
6:13 PM 68.0 °F 55.4 °F 64% 29.47 in 10.0 mi South 10.4 mph 17.3 mph N/A   Overcast
6:34 PM 69.8 °F 48.2 °F 46% 29.48 in 10.0 mi SSW 15.0 mph 23.0 mph N/A   Overcast
6:54 PM 69.8 °F 46.4 °F 43% 29.48 in 10.0 mi SSW 17.3 mph 24.2 mph N/A   Overcast
7:13 PM 69.8 °F 46.4 °F 43% 29.49 in 10.0 mi SSW 18.4 mph 24.2 mph N/A   Mostly Cloudy
7:33 PM 66.2 °F 46.4 °F 49% 29.52 in 10.0 mi WSW 24.2 mph 32.2 mph N/A   Clear
7:53 PM 64.4 °F 46.4 °F 52% 29.53 in 10.0 mi SW 24.2 mph 33.4 mph N/A   Scattered Clouds
8:13 PM 62.6 °F 46.4 °F 55% 29.55 in 10.0 mi SW 24.2 mph 34.5 mph N/A   Clear
8:33 PM 60.8 °F 48.2 °F 63% 29.57 in 10.0 mi WSW 27.6 mph 33.4 mph N/A   Clear
8:53 PM 57.2 °F 46.4 °F 67% 29.58 in 10.0 mi WSW 26.5 mph 35.7 mph N/A   Scattered Clouds
9:14 PM 55.4 °F 46.4 °F 72% 29.59 in 10.0 mi WSW 23.0 mph 32.2 mph N/A   Scattered Clouds
9:33 PM 55.4 °F 46.4 °F 72% 29.60 in 10.0 mi SW 20.7 mph 27.6 mph N/A   Mostly Cloudy
9:53 PM 55.4 °F 46.4 °F 72% 29.61 in 10.0 mi WSW 20.7 mph 25.3 mph N/A   Overcast
10:14 PM 55.4 °F 44.6 °F 67% 29.62 in 10.0 mi SW 21.9 mph 31.1 mph N/A   Overcast
10:33 PM 53.6 °F 42.8 °F 67% 29.63 in 10.0 mi WSW 24.2 mph 29.9 mph N/A   Overcast
10:54 PM 53.6 °F 42.8 °F 67% 29.63 in 10.0 mi SW 17.3 mph 25.3 mph N/A   Overcast
11:14 PM 53.6 °F 42.8 °F 67% 29.64 in 10.0 mi SW 19.6 mph 26.5 mph N/A   Overcast
11:33 PM 53.6 °F 42.8 °F 67% 29.65 in 10.0 mi WSW 21.9 mph 29.9 mph N/A   Overcast
11:54 PM 53.6 °F 42.8 °F 67% 29.66 in 10.0 mi WSW 20.7 mph 29.9 mph N/A   Overcast